• In Russia
  • List of Countries
  • For 7 days
  • Water Temperature
  • Satellite Maps
  • Weather Map
  • Weather Widgets
  • user-avatar
    Login

    Hourly Weather Koma

    Today, 15 November, Thursday

    Time Temperature Precipitation Wind Pressure Humidity
    00:00 -14°C° 0 mm 3 mps 728 mmHg 78%
    01:00 -14°C° 0 mm 3 mps 728 mmHg 78%
    02:00 -14°C° 0.1 mm 3 mps 728 mmHg 79%
    03:00 -14°C° 0.1 mm 3 mps 728 mmHg 80%
    04:00 -13°C° 0.1 mm 2 mps 728 mmHg 82%
    05:00 -13°C° 0 mm 2 mps 728 mmHg 81%
    06:00 -14°C° 0 mm 2 mps 727 mmHg 81%
    07:00 -14°C° 0 mm 2 mps 727 mmHg 81%
    08:00 -13°C° 0 mm 2 mps 727 mmHg 74%
    09:00 -10°C° 0 mm 2 mps 727 mmHg 68%
    10:00 -9°C° 0 mm 2 mps 726 mmHg 61%
    11:00 -9°C° 0 mm 3 mps 726 mmHg 59%
    12:00 -8°C° 0 mm 3 mps 725 mmHg 57%
    13:00 -7°C° 0 mm 3 mps 725 mmHg 55%
    14:00 -8°C° 0 mm 3 mps 724 mmHg 59%
    15:00 -8°C° 0 mm 2 mps 724 mmHg 64%
    16:00 -9°C° 0 mm 2 mps 724 mmHg 68%
    17:00 -10°C° 0 mm 2 mps 723 mmHg 68%
    18:00 -10°C° 0 mm 2 mps 723 mmHg 68%
    19:00 -12°C° 0 mm 2 mps 723 mmHg 68%
    20:00 -12°C° 0 mm 2 mps 722 mmHg 68%
    21:00 -12°C° 0 mm 2 mps 722 mmHg 67%
    22:00 -12°C° 0 mm 2 mps 722 mmHg 67%
    23:00 -10°C° 0 mm 2 mps 721 mmHg 67%

    Tomorrow, 16 November, Friday

    Time Temperature Precipitation Wind Pressure Humidity
    00:00 -10°C° 0 mm 2 mps 721 mmHg 68%
    01:00 -10°C° 0 mm 2 mps 721 mmHg 68%
    02:00 -9°C° 0.1 mm 2 mps 721 mmHg 72%
    03:00 -9°C° 0.1 mm 2 mps 720 mmHg 76%
    04:00 -9°C° 0.1 mm 2 mps 720 mmHg 80%
    05:00 -9°C° 0.1 mm 2 mps 720 mmHg 82%
    06:00 -9°C° 0.1 mm 3 mps 721 mmHg 85%
    07:00 -9°C° 0.1 mm 3 mps 721 mmHg 87%
    08:00 -8°C° 0.1 mm 3 mps 721 mmHg 82%
    09:00 -8°C° 0.1 mm 4 mps 721 mmHg 77%
    10:00 -7°C° 0.1 mm 4 mps 721 mmHg 71%
    11:00 -5°C° 0.1 mm 4 mps 720 mmHg 69%
    12:00 -5°C° 0.1 mm 4 mps 720 mmHg 67%
    13:00 -4°C° 0.1 mm 4 mps 720 mmHg 65%
    14:00 -5°C° 0.1 mm 4 mps 719 mmHg 69%
    15:00 -6°C° 0.1 mm 3 mps 719 mmHg 74%
    16:00 -6°C° 0.1 mm 2 mps 719 mmHg 79%
    17:00 -6°C° 0 mm 2 mps 719 mmHg 79%
    18:00 -7°C° 0 mm 2 mps 719 mmHg 80%
    19:00 -7°C° 0 mm 2 mps 720 mmHg 80%
    20:00 -7°C° 0 mm 2 mps 720 mmHg 82%
    21:00 -7°C° 0 mm 1 mps 720 mmHg 84%
    22:00 -7°C° 0 mm 1 mps 720 mmHg 85%
    23:00 -7°C° 0.3 mm 1 mps 720 mmHg 88%

    Day after tomorrow, 17 November, Saturday

    Time Temperature Precipitation Wind Pressure Humidity
    00:00 -8°C° 0.3 mm 2 mps 720 mmHg 90%
    01:00 -8°C° 0.3 mm 2 mps 720 mmHg 93%
    02:00 -9°C° 0.4 mm 3 mps 721 mmHg 92%
    03:00 -10°C° 0.4 mm 4 mps 721 mmHg 90%
    04:00 -10°C° 0.4 mm 4 mps 722 mmHg 89%
    05:00 -12°C° 0.1 mm 5 mps 723 mmHg 84%
    06:00 -13°C° 0.1 mm 5 mps 723 mmHg 78%
    07:00 -15°C° 0.1 mm 5 mps 724 mmHg 73%
    08:00 -16°C° 0 mm 6 mps 725 mmHg 71%
    09:00 -16°C° 0 mm 6 mps 725 mmHg 69%
    10:00 -17°C° 0 mm 6 mps 726 mmHg 68%
    11:00 -17°C° 0 mm 6 mps 726 mmHg 67%
    12:00 -17°C° 0 mm 6 mps 726 mmHg 66%
    13:00 -17°C° 0 mm 6 mps 726 mmHg 66%
    14:00 -18°C° 0 mm 6 mps 726 mmHg 69%
    15:00 -18°C° 0 mm 5 mps 726 mmHg 72%
    16:00 -19°C° 0 mm 5 mps 726 mmHg 75%
    17:00 -19°C° 0.1 mm 5 mps 726 mmHg 76%
    18:00 -19°C° 0.1 mm 5 mps 726 mmHg 78%
    19:00 -19°C° 0.1 mm 5 mps 726 mmHg 79%
    20:00 -18°C° 0 mm 4 mps 726 mmHg 80%
    21:00 -19°C° 0 mm 4 mps 726 mmHg 81%
    22:00 -19°C° 0 mm 4 mps 726 mmHg 82%
    23:00 -19°C° 0 mm 4 mps 726 mmHg 84%

    18 November, Sunday

    Time Temperature Precipitation Wind Pressure Humidity
    00:00 -18°C° 0 mm 3 mps 725 mmHg 86%
    01:00 -19°C° 0 mm 3 mps 725 mmHg 87%
    02:00 -19°C° 0.1 mm 3 mps 725 mmHg 88%
    03:00 -18°C° 0.1 mm 2 mps 725 mmHg 90%
    04:00 -18°C° 0.1 mm 2 mps 724 mmHg 91%
    05:00 -18°C° 0.1 mm 2 mps 724 mmHg 92%
    06:00 -18°C° 0.1 mm 2 mps 724 mmHg 93%
    07:00 -18°C° 0.1 mm 2 mps 724 mmHg 93%
    08:00 -17°C° 0.1 mm 2 mps 724 mmHg 87%
    09:00 -16°C° 0.1 mm 2 mps 724 mmHg 81%
    10:00 -15°C° 0.1 mm 2 mps 723 mmHg 76%
    11:00 -15°C° 0.1 mm 2 mps 723 mmHg 73%
    12:00 -15°C° 0.1 mm 3 mps 723 mmHg 71%
    13:00 -15°C° 0.1 mm 3 mps 722 mmHg 69%
    14:00 -14°C° 0.1 mm 2 mps 722 mmHg 75%
    15:00 -15°C° 0.1 mm 2 mps 722 mmHg 80%
    16:00 -16°C° 0.1 mm 2 mps 722 mmHg 85%
    17:00 -16°C° 0.1 mm 2 mps 722 mmHg 87%
    18:00 -17°C° 0.1 mm 2 mps 722 mmHg 89%
    19:00 -17°C° 0.1 mm 2 mps 722 mmHg 91%
    20:00 -17°C° 0.1 mm 2 mps 722 mmHg 92%
    21:00 -17°C° 0.1 mm 2 mps 722 mmHg 92%
    22:00 -17°C° 0.1 mm 2 mps 722 mmHg 92%
    23:00 -17°C° 0.1 mm 2 mps 722 mmHg 92%

    19 November, Monday

    Time Temperature Precipitation Wind Pressure Humidity
    00:00 -16°C° 0.1 mm 2 mps 722 mmHg 92%
    01:00 -17°C° 0.1 mm 3 mps 722 mmHg 91%
    02:00 -17°C° 0.1 mm 3 mps 722 mmHg 91%
    03:00 -17°C° 0.1 mm 3 mps 722 mmHg 90%
    04:00 -18°C° 0.1 mm 4 mps 722 mmHg 89%
    05:00 -18°C° 0.1 mm 4 mps 722 mmHg 89%
    06:00 -18°C° 0.1 mm 4 mps 723 mmHg 88%
    07:00 -18°C° 0.1 mm 4 mps 723 mmHg 87%
    08:00 -18°C° 0.1 mm 4 mps 723 mmHg 84%
    09:00 -18°C° 0.1 mm 5 mps 723 mmHg 80%
    10:00 -18°C° 0.1 mm 5 mps 724 mmHg 76%
    11:00 -18°C° 0.1 mm 5 mps 724 mmHg 75%
    12:00 -17°C° 0.1 mm 5 mps 724 mmHg 74%
    13:00 -17°C° 0.1 mm 5 mps 724 mmHg 73%
    14:00 -17°C° 0.1 mm 4 mps 724 mmHg 77%
    15:00 -17°C° 0.1 mm 4 mps 724 mmHg 80%
    16:00 -17°C° 0.1 mm 3 mps 724 mmHg 84%
    17:00 -17°C° 0.1 mm 3 mps 724 mmHg 87%
    18:00 -16°C° 0.1 mm 2 mps 725 mmHg 90%
    19:00 -17°C° 0.1 mm 2 mps 725 mmHg 92%
    20:00 -17°C° 0.1 mm 2 mps 725 mmHg 93%
    21:00 -17°C° 0.1 mm 2 mps 725 mmHg 93%
    22:00 -17°C° 0.1 mm 2 mps 725 mmHg 94%
    23:00 -17°C° 0.1 mm 2 mps 724 mmHg 94%

    20 November, Tuesday

    Time Temperature Precipitation Wind Pressure Humidity
    00:00 -17°C° 0.1 mm 2 mps 724 mmHg 94%
    01:00 -16°C° 0.1 mm 2 mps 724 mmHg 94%
    02:00 -16°C° 0.1 mm 2 mps 724 mmHg 94%
    03:00 -16°C° 0.1 mm 2 mps 724 mmHg 94%
    04:00 -16°C° 0.1 mm 2 mps 723 mmHg 94%
    05:00 -16°C° 0.1 mm 2 mps 723 mmHg 94%
    06:00 -15°C° 0.1 mm 2 mps 723 mmHg 94%
    07:00 -15°C° 0.1 mm 2 mps 723 mmHg 94%
    08:00 -15°C° 0.1 mm 3 mps 723 mmHg 89%
    09:00 -13°C° 0.1 mm 3 mps 723 mmHg 85%
    10:00 -12°C° 0.1 mm 4 mps 723 mmHg 80%
    11:00 -11°C° 0.1 mm 4 mps 722 mmHg 78%
    12:00 -11°C° 0.1 mm 4 mps 722 mmHg 76%
    13:00 -11°C° 0.1 mm 5 mps 722 mmHg 74%
    14:00 -10°C° 0.2 mm 4 mps 721 mmHg 77%
    15:00 -11°C° 0.2 mm 4 mps 721 mmHg 79%
    16:00 -11°C° 0.2 mm 4 mps 721 mmHg 82%
    17:00 -12°C° 0.1 mm 4 mps 721 mmHg 84%
    18:00 -12°C° 0.1 mm 4 mps 721 mmHg 85%
    19:00 -12°C° 0.1 mm 4 mps 721 mmHg 86%
    20:00 -12°C° 0.2 mm 3 mps 720 mmHg 87%
    21:00 -12°C° 0.2 mm 3 mps 720 mmHg 88%
    22:00 -12°C° 0.2 mm 3 mps 720 mmHg 88%
    23:00 -12°C° 0.1 mm 3 mps 719 mmHg 88%
    Show more